DW3361 Weather Reports


Display with metric or nautical units.
time (UTC)temp
F
wind
direction
speed
MPH
gust
MPH
rain 1hr
in
rain 24hr
in
rain mn
in
humidity
%
barometer
mb
20260503004515 42 197 0.0 0.0 0.00 0.00 0.00 71 1018.3
20260503003014 43 197 0.0 0.0 0.00 0.00 0.00 70 1018.4
20260503001512 43 197 0.0 0.0 0.00 0.00 0.00 69 1018.5
20260503000010 43 197 0.0 0.0 0.00 0.00 0.00 70 1018.6
20260502234527 44 197 0.0 0.0 0.00 0.00 0.00 70 1018.7
20260502233006 44 197 0.0 0.0 0.00 0.00 0.00 68 1018.6
20260502231503 44 197 0.0 0.0 0.00 0.00 0.00 68 1018.8
20260502230002 45 197 0.0 0.0 0.00 0.00 0.00 66 1018.9
20260502224559 46 197 0.0 0.0 0.00 0.00 0.00 65 1019.0
20260502223058 46 197 0.0 0.0 0.00 0.00 0.00 66 1019.0
20260502221554 46 197 0.0 0.0 0.00 0.00 0.00 65 1019.0
20260502220135 47 197 0.0 0.0 0.00 0.00 0.00 64 1019.0
20260502214552 48 197 0.0 0.0 0.00 0.00 0.00 62 1018.9
20260502213053 48 197 0.0 0.0 0.00 0.00 0.00 60 1018.9
20260502211552 49 197 0.0 0.0 0.00 0.00 0.00 60 1018.8
20260502210100 50 197 0.0 0.0 0.00 0.00 0.00 58 1019.0
20260502204559 51 197 0.0 0.0 0.00 0.00 0.00 56 1019.0
20260502203153 51 197 0.0 0.0 0.00 0.00 0.00 56 1019.0
20260502201548 52 197 0.0 0.0 0.00 0.00 0.00 53 1019.0
20260502200048 53 197 0.0 0.0 0.00 0.00 0.00 52 1019.0
20260502194553 54 197 0.0 0.0 0.00 0.00 0.00 51 1018.9
20260502193048 55 197 0.0 0.0 0.00 0.00 0.00 49 1018.8
20260502191546 56 197 0.0 0.0 0.00 0.00 0.00 48 1018.6
20260502190056 58 197 0.0 0.0 0.00 0.00 0.00 46 1018.5
20260502184546 60 197 0.0 0.0 0.00 0.00 0.00 43 1018.4
20260502183056 61 197 0.0 0.0 0.00 0.00 0.00 40 1018.2
20260502181546 63 197 0.0 0.0 0.00 0.00 0.00 37 1018.1
20260502163101 73 287 3.0 8.0 0.00 0.00 0.00 21 1018.3
20260502161537 73 277 1.0 9.0 0.00 0.00 0.00 21 1018.4
20260502151535 74 271 1.0 7.0 0.00 0.00 0.00 21 1019.0
20260502123010 73 273 0.0 8.0 0.00 0.00 0.00 24 1020.8
20260502121508 73 151 1.0 8.0 0.00 0.00 0.00 24 1020.8
20260502114502 73 160 2.0 9.0 0.00 0.00 0.00 22 1021.3
20260502113100 72 201 2.0 12.0 0.00 0.00 0.00 24 1021.4
20260502111559 72 279 6.0 11.0 0.00 0.00 0.00 23 1021.6
20260502110059 73 292 2.0 11.0 0.00 0.00 0.00 24 1021.8
20260502104554 73 28 1.0 8.0 0.00 0.00 0.00 25 1022.0
20260502103051 72 17 0.0 4.0 0.00 0.00 0.00 26 1022.2
20260502101550 71 302 2.0 9.0 0.00 0.00 0.00 25 1022.4
20260502071501 61 255 0.0 2.0 0.00 0.00 0.00 49 1024.2
20260502070100 59 255 0.0 0.0 0.00 0.00 0.00 58 1024.3
20260502064554 56 255 0.0 0.0 0.00 0.00 0.00 61 1024.3
20260502063048 53 255 0.0 2.0 0.00 0.00 0.00 66 1024.5
20260502061544 52 255 0.0 0.0 0.00 0.00 0.00 67 1024.6
20260502060040 49 255 0.0 0.0 0.00 0.00 0.00 71 1024.8
20260502054536 48 255 0.0 0.0 0.00 0.00 0.00 74 1024.8
20260502053031 46 255 0.0 0.0 0.00 0.00 0.00 77 1024.9
20260502051528 43 256 0.0 0.0 0.00 0.00 0.00 81 1024.9
20260502050033 41 256 0.0 0.0 0.00 0.00 0.00 83 1024.8
20260502044518 39 256 0.0 0.0 0.00 0.00 0.00 87 1024.8
20260502043013 37 256 0.0 0.0 0.00 0.00 0.00 84 1024.8
20260502041509 36 256 0.0 0.0 0.00 0.00 0.00 83 1024.7
20260502040007 36 256 0.0 0.0 0.00 0.00 0.00 80 1024.7
20260502034505 36 256 0.0 0.0 0.00 0.00 0.00 78 1024.8
20260502033003 36 256 0.0 0.0 0.00 0.00 0.00 76 1024.7
20260502031502 36 256 0.0 0.0 0.00 0.00 0.00 76 1024.6
20260502030002 36 256 0.0 0.0 0.00 0.00 0.00 74 1024.7
20260502024559 37 256 0.0 0.0 0.00 0.00 0.00 74 1024.7
20260502023058 37 256 0.0 0.0 0.00 0.00 0.00 73 1024.8
20260502021556 37 256 0.0 0.0 0.00 0.00 0.00 73 1024.9
20260502020054 38 256 0.0 0.0 0.00 0.00 0.00 72 1024.9
20260502014600 38 256 0.0 0.0 0.00 0.00 0.00 72 1024.9
20260502013055 38 256 0.0 0.0 0.00 0.00 0.00 72 1024.9
20260502011552 38 256 0.0 0.0 0.00 0.00 0.00 70 1024.9
20260502010050 39 256 0.0 0.0 0.00 0.00 0.00 70 1025.0